AEROCUBE 5C

Last updated on Fri Sep 19 2025 00:03:49 GMT+0000 (Coordinated Universal Time)

1 40965U 15058B 25260.69356353 .00005176 00000+0 45633-3 0 9990 2 40965 64.7694 29.0519 0150142 167.3031 193.1931 14.89213939325042
UTC large
Height (km)
Speed (km/s)
/
Latitude / Longitude
Inclination (degrees)
Orbital Period (minutes)
Azimuth
Elevation
Range (km)
Doppler Factor

Next 0 passes for location: London (51.5072 / 0.1276)

Sorry there are no passes over London.